Content
SEND FEEDBACK

Daily
Averages
Monthly
Summary
United States of America

ELMENDORF AFB, ALASKA


Home > North America > United States > Alaska
Elevation: 370 feet     Latitude: 61 14N     Longitude: 149 43W

WEATHER
 
SELECT A DAY
Number of Records: 232,939;   Date Range: 1/1/95 - 12/20/14
 
SHARE

PRINT THIS DATA

[ ← Previous Day ]
WEATHER ALMANAC - JANUARY 31, 2013
[ Next Day → ]
[ °C ]   °F
Weather ElementAverageHighLow
Temperature29.3 °F32 °F (12:56 pm)26.6 °F (12:13 am)
Dewpoint28.5 °F31.6 °F (3:55 pm)24.3 °F (2:55 am)
Humidity97.1 %100 % (7:52 am)90 % (2:55 am)
Barometer29.85 in29.95 in (10:55 pm)29.70 in (12:13 am)
Wind Speed1.8 mph9.2 mph (6:19 pm)
Weather ElementAverage
Visibility4.6 mi
Wind DirectionNNE (31.9 °)

Weather ElementTotal
Precipitation0.02 in
Heating Degree Days35.7 (Base 65)
Averaged from 137 records on January 31, 2013
WEATHER CONDITIONS BREAKOUT
WIND DIRECTION BREAKOUT
WEATHER BY HOUR - JANUARY 31, 2013
[ °C ]   °F
Local TimeTemperatureDewpointHumidityBarometerVisibilityWind DirectionWind SpeedGust SpeedPrecipitationEventsConditions
12:13 AM26.6 °F24.8 °F93 %29.70 in6.0 miENE (70°)4.6 mphRainLight Freezing Rain
12:30 AM26.6 °F24.8 °F93 %29.70 in10.0 miENE (70°)4.6 mphOvercast
12:55 AM27.0 °F25.2 °F93 %29.70 in10.0 miESE (110°)4.6 mph0.00 inOvercast
1:16 AM26.6 °F24.8 °F93 %29.70 in10.0 miVariable6.9 mphOvercast
1:26 AM26.6 °F24.8 °F93 %29.70 in10.0 miENE (60°)6.9 mphOvercast
1:55 AM27.0 °F25.5 °F94 %29.72 in10.0 miCalm0.00 inOvercast
2:27 AM26.6 °F24.8 °F93 %29.73 in6.0 miCalmRainLight Freezing Rain
2:55 AM26.8 °F24.3 °F90 %29.74 in6.0 miCalm0.00 inRainLight Freezing Rain
3:28 AM26.6 °F24.8 °F93 %29.75 in6.0 miCalmRain-SnowLight Rain
3:45 AM26.6 °F24.8 °F93 %29.72 in6.0 miCalmSnowLight Snow
3:53 AM26.6 °F24.8 °F93 %29.75 in8.0 miCalmSnowLight Snow
3:55 AM27.0 °F25.2 °F93 %29.75 in8.0 miESE (110°)3.5 mph0.01 inSnowLight Snow
4:31 AM26.6 °F24.8 °F93 %29.73 in6.0 miEast (100°)3.5 mphRain-SnowLight Rain
4:55 AM27.1 °F25.9 °F95 %29.75 in9.0 miEast (100°)3.5 mph0.00 inSnowLight Snow
5:16 AM28.4 °F26.6 °F93 %29.76 in6.0 miEast (100°)4.6 mphSnowLight Snow
5:29 AM28.4 °F26.6 °F93 %29.76 in7.0 miEast (80°)4.6 mphSnowLight Snow
5:32 AM28.4 °F26.6 °F93 %29.76 in6.0 miEast (80°)5.8 mphSnowLight Snow
5:45 AM28.4 °F26.6 °F93 %29.76 in9.0 miCalmSnowLight Snow
5:55 AM27.9 °F26.8 °F96 %29.76 in7.0 miCalm0.01 inSnowLight Snow
6:05 AM28.4 °F26.6 °F93 %29.76 in8.0 miCalmSnowLight Snow
6:48 AM28.4 °F26.6 °F93 %29.78 in10.0 miCalmOvercast
6:55 AM27.9 °F27.0 °F96 %29.78 in10.0 miCalm0.00 inOvercast
7:07 AM28.4 °F26.6 °F93 %29.79 in10.0 miCalmOvercast
7:10 AM28.4 °F26.6 °F93 %29.79 in10.0 miCalmOvercast
7:11 AM28.4 °F26.6 °F93 %29.77 in4.0 miCalmSnowLight Snow
7:15 AM28.4 °F26.6 °F93 %29.79 in10.0 miCalmOvercast
7:19 AM28.4 °F26.6 °F93 %29.79 in10.0 miEast (90°)3.5 mphOvercast
7:21 AM28.4 °F26.6 °F93 %29.80 in10.0 miEast (100°)3.5 mphOvercast
7:22 AM28.4 °F26.6 °F93 %29.80 in10.0 miEast (100°)3.5 mphOvercast
7:25 AM28.4 °F26.6 °F93 %29.80 in10.0 miEast (90°)3.5 mphOvercast
7:28 AM28.4 °F26.6 °F93 %29.80 in10.0 miCalmOvercast
7:33 AM28.4 °F26.6 °F93 %29.80 in10.0 miCalmOvercast
7:35 AM28.4 °F26.6 °F93 %29.80 in10.0 miCalmOvercast
7:42 AM28.4 °F26.6 °F93 %29.80 in10.0 miSSE (160°)3.5 mphOvercast
7:52 AM26.6 °F26.6 °F100 %29.79 in10.0 miSE (130°)4.6 mphOvercast
7:55 AM27.0 °F26.1 °F96 %29.80 in10.0 miSE (130°)3.5 mph0.00 inLight Freezing Drizzle
8:01 AM26.6 °F26.6 °F100 %29.80 in10.0 miSE (140°)3.5 mphLight Freezing Drizzle
8:10 AM26.6 °F26.6 °F100 %29.77 in5.0 miSE (130°)3.5 mphLight Freezing Drizzle
8:25 AM28.4 °F26.6 °F93 %29.79 in10.0 miCalmOvercast
8:49 AM28.4 °F26.6 °F93 %29.80 in10.0 miCalmOvercast
8:55 AM28.2 °F27.3 °F96 %29.80 in10.0 miCalm0.00 inOvercast
8:57 AM28.4 °F26.6 °F93 %29.80 in10.0 miCalmOvercast
8:58 AM28.4 °F26.6 °F93 %29.80 in10.0 miCalmOvercast
9:03 AM28.4 °F26.6 °F93 %29.81 in10.0 miCalmOvercast
9:05 AM28.4 °F26.6 °F93 %29.81 in10.0 miCalmOvercast
9:15 AM28.4 °F26.6 °F93 %29.81 in10.0 miCalmOvercast
9:25 AM26.6 °F26.6 °F100 %29.81 in10.0 miESE (110°)3.5 mphOvercast
9:55 AM29.1 °F28.4 °F97 %29.82 in10.0 miCalmOvercast
10:03 AM28.4 °F28.4 °F100 %29.82 in10.0 miCalmOvercast
10:15 AM28.4 °F28.4 °F100 %29.83 in10.0 miCalmOvercast
10:33 AM28.4 °F28.4 °F100 %29.84 in10.0 miCalmOvercast
10:37 AM28.4 °F28.4 °F100 %29.84 in10.0 miCalmOvercast
10:55 AM29.3 °F28.4 °F96 %29.85 in10.0 miCalmOvercast
11:03 AM30.2 °F28.4 °F93 %29.85 in10.0 miNNE (30°)3.5 mphOvercast
11:20 AM28.4 °F28.4 °F100 %29.86 in5.0 miENE (70°)3.5 mphOvercast
11:21 AM28.4 °F28.4 °F100 %29.86 in5.0 miCalmOvercast
11:24 AM28.4 °F28.4 °F100 %29.83 in3.0 miENE (70°)1.2 mphLight Freezing Drizzle
11:30 AM30.2 °F28.4 °F93 %29.86 in3.0 miCalmOvercast
11:45 AM30.2 °F28.4 °F93 %29.86 in2.5 miNE (40°)4.6 mphOvercast
11:47 AM30.2 °F30.2 °F100 %29.86 in2.5 miNE (50°)3.5 mphOvercast
11:55 AM29.7 °F29.5 °F99 %29.86 in2.0 miCalm0.00 inOvercast
11:58 AM30.2 °F30.2 °F100 %29.86 in2.0 miCalmOvercast
12:00 PM30.2 °F30.2 °F100 %29.86 in1.8 miCalmOvercast
12:03 PM30.2 °F30.2 °F100 %29.86 in1.5 miCalmOvercast
12:05 PM30.2 °F30.2 °F100 %29.86 in1.2 miCalmOvercast
12:12 PM30.2 °F28.4 °F93 %29.87 in1.0 miCalmOvercast
12:14 PM30.2 °F30.2 °F100 %29.87 in1.2 miCalmOvercast
12:23 PM30.2 °F30.2 °F100 %29.87 in1.5 miCalmOvercast
12:25 PM30.2 °F30.2 °F100 %29.87 in1.2 miCalmOvercast
12:31 PM30.2 °F30.2 °F100 %29.87 in1.0 miCalmOvercast
12:40 PM30.2 °F30.2 °F100 %29.87 in0.8 miCalmOvercast
12:44 PM30.2 °F30.2 °F100 %29.87 in0.8 miCalmOvercast
12:51 PM30.2 °F30.2 °F100 %29.87 in0.8 miESE (120°)4.6 mphLight Freezing Drizzle
12:55 PM30.4 °F30.2 °F99 %29.87 in0.8 miESE (120°)4.6 mph0.00 inLight Freezing Drizzle
12:56 PM32.0 °F30.2 °F93 %29.89 in0.8 miESE (120°)3.5 mphLight Freezing Drizzle
1:10 PM30.2 °F30.2 °F100 %29.87 in0.5 miESE (120°)3.5 mphFogLight Freezing Drizzle
1:11 PM30.2 °F30.2 °F100 %29.88 in0.5 miESE (120°)3.5 mphFogLight Freezing Drizzle
1:25 PM30.2 °F30.2 °F100 %29.88 in0.5 miCalmFogLight Freezing Drizzle
1:35 PM30.2 °F30.2 °F100 %29.88 in0.5 miCalmFog-RainLight Freezing Rain
1:48 PM30.2 °F30.2 °F100 %29.88 in0.5 miCalmFog-RainLight Freezing Rain
1:49 PM30.2 °F30.2 °F100 %29.88 in0.5 miCalmFogLight Freezing Fog
1:50 PM30.2 °F30.2 °F100 %29.88 in0.5 miCalmFogLight Freezing Fog
1:55 PM30.7 °F30.6 °F99 %29.88 in0.2 miCalm0.00 inFogLight Freezing Fog
1:57 PM30.2 °F30.2 °F100 %29.88 in0.5 miCalmFogLight Freezing Fog
1:58 PM30.2 °F30.2 °F100 %29.88 in0.5 miCalmFogLight Freezing Fog
2:05 PM30.2 °F30.2 °F100 %29.88 in0.8 miCalmOvercast
2:07 PM30.2 °F30.2 °F100 %29.88 in0.8 miCalmOvercast
2:10 PM30.2 °F30.2 °F100 %29.88 in0.5 miCalmFogLight Freezing Fog
2:17 PM30.2 °F30.2 °F100 %29.89 in0.8 miCalmOvercast
2:20 PM32.0 °F30.2 °F93 %29.89 in1.0 miCalmOvercast
2:22 PM32.0 °F30.2 °F93 %29.89 in1.5 miCalmOvercast
2:23 PM32.0 °F30.2 °F93 %29.89 in2.0 miCalmOvercast
2:24 PM32.0 °F30.2 °F93 %29.89 in2.5 miCalmOvercast
2:25 PM32.0 °F30.2 °F93 %29.89 in3.0 miCalmOvercast
2:31 PM30.2 °F30.2 °F100 %29.89 in3.0 miCalmOvercast
2:32 PM30.2 °F30.2 °F100 %29.89 in2.5 miCalmOvercast
2:35 PM30.2 °F30.2 °F100 %29.89 in2.0 miNNE (20°)3.5 mphOvercast
2:41 PM30.2 °F30.2 °F100 %29.90 in3.0 miCalmOvercast
2:55 PM30.7 °F30.6 °F99 %29.91 in10.0 miCalmOvercast
3:07 PM32.0 °F30.2 °F93 %29.91 in7.0 miCalmOvercast
3:22 PM30.2 °F30.2 °F100 %29.90 in10.0 miCalmOvercast
3:55 PM31.8 °F31.6 °F99 %29.90 in10.0 miCalmOvercast
4:19 PM30.2 °F30.2 °F100 %29.90 in1.2 miCalmOvercast
4:22 PM30.2 °F30.2 °F100 %29.90 in1.0 miCalmOvercast
4:31 PM30.2 °F30.2 °F100 %29.90 in0.2 miENE (70°)4.6 mphFogLight Freezing Fog
4:41 PM30.2 °F30.2 °F100 %29.91 in0.2 miCalmFogLight Freezing Fog
4:55 PM29.5 °F29.3 °F99 %29.91 in0.2 miCalm0.00 inFogLight Freezing Fog
5:00 PM28.4 °F28.4 °F100 %29.91 in0.2 miCalmFogLight Freezing Fog
5:17 PM28.4 °F28.4 °F100 %29.91 in0.2 miCalmFogLight Freezing Fog
5:28 PM28.4 °F28.4 °F100 %29.91 in0.2 miCalmFogLight Freezing Fog
5:55 PM28.9 °F28.6 °F99 %29.91 in0.5 miCalm0.00 inFogLight Freezing Fog
5:58 PM28.4 °F28.4 °F100 %29.91 in0.5 miEast (80°)3.5 mphFogLight Freezing Fog
5:59 PM28.4 °F28.4 °F100 %29.91 in0.8 miENE (70°)3.5 mphOvercast
6:04 PM28.4 °F28.4 °F100 %29.91 in1.5 miNE (50°)5.8 mphOvercast
6:07 PM30.2 °F30.2 °F100 %29.91 in3.0 miENE (60°)8.1 mphOvercast
6:19 PM30.2 °F30.2 °F100 %29.91 in1.2 miNE (50°)9.2 mphOvercast
6:25 PM30.2 °F30.2 °F100 %29.92 in1.0 miNE (50°)8.1 mphOvercast
6:29 PM30.2 °F30.2 °F100 %29.92 in0.8 miNE (50°)6.9 mphOvercast
6:55 PM30.6 °F30.2 °F99 %29.92 in0.8 miENE (60°)4.6 mph0.00 inOvercast
7:21 PM30.2 °F30.2 °F100 %29.92 in1.0 miCalmOvercast
7:56 PM30.2 °F30.2 °F100 %29.92 in0.8 miNNE (30°)4.6 mphLight Freezing Drizzle
7:57 PM30.2 °F30.2 °F100 %29.92 in0.5 miNE (40°)4.6 mphFogLight Freezing Fog
8:07 PM30.2 °F30.2 °F100 %29.93 in0.5 miCalmFogLight Freezing Fog
8:28 PM30.2 °F30.2 °F100 %29.94 in0.8 miNE (50°)3.5 mphFogLight Freezing Fog
8:55 PM30.4 °F30.0 °F99 %29.93 in1.0 miENE (70°)4.6 mph0.00 inMist
9:25 PM30.2 °F30.2 °F100 %29.92 in1.0 miENE (70°)8.1 mphOvercast
9:30 PM30.2 °F30.2 °F100 %29.93 in0.8 miENE (70°)5.8 mphOvercast
9:40 PM30.2 °F30.2 °F100 %29.93 in1.0 miENE (70°)3.5 mphMist
9:47 PM30.2 °F30.2 °F100 %29.93 in1.5 miEast (80°)3.5 mphOvercast
9:55 PM30.4 °F30.2 °F99 %29.93 in2.0 miCalm0.00 inOvercast
10:06 PM30.2 °F30.2 °F100 %29.94 in3.0 miVariable3.5 mphOvercast
10:09 PM30.2 °F30.2 °F100 %29.94 in3.0 miNE (50°)3.5 mphOvercast
10:55 PM29.8 °F29.7 °F99 %29.95 in5.0 miEast (80°)3.5 mph0.00 inOvercast
11:18 PM30.2 °F30.2 °F100 %29.95 in4.0 miEast (80°)3.5 mphOvercast
11:21 PM30.2 °F30.2 °F100 %29.95 in2.5 miENE (60°)3.5 mphOvercast
11:31 PM30.2 °F30.2 °F100 %29.95 in3.0 miENE (70°)4.6 mphOvercast
11:50 PM30.2 °F28.4 °F93 %29.95 in2.5 miENE (70°)4.6 mphOvercast
Hourly data recorded from PAED, located miles away from Elmendorf Afb, Alaska







STORIES FROM OUR PARTNERS